CZ-6A DEB, 56263

Orbit data source: Space-Track

CZ-6A DEB, 56263 is space debris in SSO originally from a launch on Fri, 11 Nov 2022 UTC launched from the Taiyaun Space Center, China (TSC). Debris objects in space refer to the collection of defunct objects orbiting the Earth. Examples of debris include non-operational satellites, rocket bodies, and fragments generated from explosions, collisions, or faulty payload assembly.

Loading next visibility...
Identifier
56263, 2022-151ACF
Orbit
SSO
Country
Flag of CNCN / PRC
Related business
Manufacturer
SAST
Mission
Spacecraft
Bus & Motor
Unknown
Mass
Unknown
Launch date (UTC)
2022-11-11 (3 years ago)
Launch vehicle
Unknown
Launch site
Taiyaun Space Center, China (TSC)
Object type
Payload
Rocket body
Debris
Shape & HBR
Unknown shape, 0.1 m
Radar Cross Section
Small (<0.1 m²)

Expand to show TLE details & history
Last TLE update: 11 hours ago

TLE from 11 hours ago
0 CZ-6A DEB
1 56263U 22151ACF 25349.83537640  .00001748  00000-0  39924-3 0  9992
2 56263  98.5211  24.4941 0120267 112.8453 248.5495 14.52680702144940
Epoch: 2025-12-15T20:02Z
TLE epoch observation values (Epoch: 2025-12-15T20:02:56.520Z)
Latitude
-0.00004°
Longitude
-0.96963°
Altitude
751.967 km
Speed
7.462 km/s
True Right ascension
01h 37m 58s
True Declination
0° 00' 00"
Sunlit
Object was in full shadow at epoch
Visualization orbit readout
Latitude
Unknown
Longitude
Unknown
Altitude
Unknown
Speed
Unknown
Apparent Right ascension
Unknown
Apparent Declination
Unknown
Sunlit
N/A
Visualization observer readout
Local Sidereal Time
06:13:04
Azimuth
Unknown
Elevation
Unknown
Doppler factor
Unknown
Orbital elements
Apogee altitude
799.307 km
Perigee altitude
628.717 km
Semi-major axis
7,092.149 km
Eccentricity
0.01203
Inclination
98.5211°
RAAN
24.4941°
Arg. of periapsis
112.8453°
True anomaly
247.27392°
Mean anomaly
248.5495°
Eccentric anomaly
247.911°
Mean motion
3.63393 °/min
Orbital period
99.07 mins
BSTAR
0.00039924
Loading maneuver chart data...
Computing Atmospheric mass density...
Loading historical data...
Loading historical data...
Loading historical data...
Loading historical data...
Loading historical data...
Loading historical data...
Loading historical data...

Documentation

Showing up to 5 results
|